STARLINK-35047

Last updated on Mon Oct 20 2025 00:02:07 GMT+0000 (Coordinated Universal Time)

1 65806U 25218R 25292.26122138 .00056497 00000+0 10320-2 0 9996 2 65806 97.6026 152.8411 0001414 99.3848 260.7563 15.49217636 3646
UTC large
Height (km)
Speed (km/s)
/
Latitude / Longitude
Inclination (degrees)
Orbital Period (minutes)
Azimuth
Elevation
Range (km)
Doppler Factor

Next 0 passes for location: London (51.5072 / 0.1276)

Sorry there are no passes over London.